SCP
0 0 0 0 0 0 0 0 0 0 0 0 0 0 0 0 0 0 0 0 0 0 0 0 0 0 0 0 0 0 0 0 0 0 0 0 0 0 0 0 0 0 0
0 0 0 0 0 0 0 0 0 0 0 0 0 0 0 0 0 0 0 0 0 0 0 0 0 0 0 0 0 0 0 0 0 0 0 0 0 0 0 0 0 0 0
0 0 0 0 0 0 0 0 0 0 0 0 0 0 0 0 0 0 0 0 0 0 0 0 0 0 0 0 0 0 0 0 0 0 0 0 0 0 0 0 0 0 0
0 0 0 0 0 0 0 0 0 0 0 0 0 0 0 0 0 0 0 0 0 0 0 0 0 0 0 0 0 0 0 0 0 0 0 0 0 0 0 0 0 0 0
0 0 0 0 0 0 0 0 0 0 0 0 0 0 0 0 0 0 0 0 0 0 0 0 0 0 0 0 0 0 0 0 0 0 0 0 0 0 0 0 0 0 0
0 0 0 0 0 0 0 0 0 0 0 0 0 0 0 0 0 0 0 0 0 0 0 0 0 0 0 0 0 0 0 0 0 0 0 0 0 0 0 0 0 0 0
0 0 0 0 0 0 0 0 0 0 0 0 0 0 0 0 0 0 0 0 0 0 0 0 0 0 0 0 0 0 0 0 0 0 0 0 0 0 0 0 0 0 0
0 0 0 0 0 0 0 0 0 0 0 0 0 0 0 0 0 0 0 0 0 0 0 0 0 0 0 0 0 0 0 0 0 0 0 0 0 0 0 0 0 0 0
0 0 0 0 0 0 0 0 0 0 0 0 0 0 0 0 0 0 0 0 0 0 0 0 0 0 0 0 0 0 0 0 0 0 0 0 0 0 0 0 0 0 0
0 0 0 0 0 0 0 0 0 0 0 0 0 0 0 0 0 0 0 0 0 0 0 0 0 0 0 0 0 0 0 0 0 0 0 0 0 0 0 0 0 0 0
0 0 0 0 0 0 0 0 0 0 0 0 0 0 0 0 0 0 0 0 0 0 0 0 0 0 0 0 0 0 0 0 0 0 0 0 0 0 0 0 0 0 0
0 0 0 0 0 0 0 0 0 0 0 0 0 0 0 0 0 0 0 0 0 0 0 0 0 0 0 0 0 0 0 0 0 0 0 0 0 0 0 0 0 0 0
0 0 0 0 0 0 0 0 0 0 0 0 0 0 0 0 0 0 0 0 0 0 0 0 0 0 0 0 0 0 0 0 0 0 0 0 0 0 0 0 0 0 0
0 0 0 0 0 0 0 0 0 0 0 0 0 0 0 0 0 0 0 0 0 0 0 0 0 0 0 0 0 0 0 0 0 0 0 0 0 0 0 0 0 0 0
0 0 0 0 0 0 0 0 0 0 0 0 0 0 0 0 0 0 0 0 0 0 0 0 0 0 0 0 0 0 0 0 0 0 0 0 0 0 0 0 0 0 0
0 0 0 0 0 0 0 0 0 0 0 0 0 0 0 0 0 0 0 0 0 0 0 0 0 0 0 0 0 0 0 0 0 0 0 0 0 0 0 0 0 0 0
0 0 0 0 0 0 0 0 0 0 0 0 0 0 0 0 0 0 0 0 0 0 0 0 0 0 0 0 0 0 0 0 0 0 0 0 0 0 0 0 0 0 0
0 0 0 0 0 0 0 0 0 0 0 0 0 0 0 0 0 0 0 0 0 0 0 0 0 0 0 0 0 0 0 0 0 0 0 0 0 0 0 0 0 0 0
0 0 0 0 0 0 0 0 0 0 0 0 0 0 0 0 0 0 0 0 0 0 0 0 0 0 0 0 0 0 0 0 0 0 0 0 0 0 0 0 0 0 0
0 0 0 0 0 0 0 0 0 0 0 0 0 0 0 0 0 0 0 0 0 0 0 0 0 0 0 0 0 0 0 0 0 0 0 0 0 0 0 0 0 0 0
0 0 0 0 0 0 0 0 0 0 0 0 0 0 0 0 0 0 0 0 0 0 0 0 0 0 0 0 0 0 0 -0 -0 -0 -0 -0 0 0 0 0 0 0 0
0 0 0 0 0 0 0 0 0 0 0 0 0 0 0 0 0 0 0 0 0 0 0 0 0 0 0 0 0 0 0 0 0 0 -0 -0 -0 0 0 0 0 0 0
0 0 0 0 0 0 0 0 0 0 0 0 0 0 0 0 0 0 0 0 0 0 0 0 0 0 0 0 0 0 0 0 0 0 0 0 0 0 0 0 0 0 0
0 0 0 0 0 0 0 0 0 0 0 0 0 0 0 0 0 0 0 0 0 0 0 0 0 0 0 0 0 0 0 0 0 0 0 0 0 0 0 0 0 0 0
0 0 0 0 0 0 0 0 0 0 0 0 0 0 0 0 0 0 0 0 0 0 0 0 0 0 0 0 0 0 0 0 0 0 0 0 0 0 0 0 0 0 0
0 0 0 0 0 0 0 0 0 0 0 0 0 0 0 0 0 0 0 0 0 0 0 0 0 0 0 0 0 0 0 0 0 0 0 0 0 0 0 0 0 0 0
Wind_Speed_500mb
57 52 47 44 42 40 37 34 33 31 30 28 27 25 24 24 22 20 18 16 15 13 11 9 8 6 5 5 2 4 9 13 14 16 17 17 19 27 31 36 42 50 59
59 54 49 45 44 42 39 36 34 32 31 29 28 27 26 24 23 21 19 18 17 15 13 11 9 7 7 7 6 2 4 9 11 11 11 12 14 19 25 28 34 41 49
63 58 53 49 47 44 41 38 36 34 33 31 29 28 25 25 23 22 21 19 18 16 15 13 12 10 10 10 9 7 5 6 8 8 8 8 9 11 13 18 23 31 38
67 63 57 51 48 46 42 39 37 35 34 32 30 29 27 25 24 23 22 21 20 18 17 15 13 12 12 12 12 12 11 9 10 10 8 9 9 11 12 12 13 20 24
71 65 59 50 49 49 45 42 40 37 35 32 31 30 28 26 23 22 22 22 20 19 17 16 15 13 14 14 14 14 15 16 15 14 12 11 12 13 14 14 17 21 21
73 67 60 55 55 52 47 44 42 40 37 35 33 31 28 26 24 25 24 23 22 20 18 19 17 16 16 16 17 17 19 19 19 19 17 16 17 19 19 19 20 23 25
72 69 64 59 58 53 49 47 44 41 38 36 34 32 29 27 27 26 24 24 22 21 20 21 19 18 18 19 21 21 22 24 25 25 24 24 23 23 25 24 25 26 28
75 72 66 62 58 55 52 49 46 42 38 36 34 31 30 27 26 25 24 23 23 23 23 23 22 22 21 23 25 25 26 27 28 31 31 30 30 30 30 32 31 31 31
78 74 68 62 59 57 54 50 45 41 40 36 32 31 28 26 25 24 24 24 24 24 24 24 25 24 24 26 29 29 30 28 31 33 34 36 37 36 37 37 38 41 42
79 73 64 59 56 55 51 47 41 39 36 34 31 30 28 26 25 25 25 25 26 24 25 26 27 26 28 30 32 33 35 28 35 36 37 37 40 40 40 41 43 43 44
73 65 60 56 50 48 46 43 39 39 37 33 30 29 28 26 25 26 26 26 24 25 25 26 26 29 31 33 35 36 37 37 38 43 42 41 42 43 42 43 46 49 48
66 62 59 52 48 48 45 41 40 37 34 31 30 29 27 27 26 26 26 24 25 26 25 26 28 31 33 36 39 39 40 42 46 49 49 47 45 44 44 47 48 51 52
63 60 54 48 47 45 43 41 39 35 32 31 29 27 25 25 25 25 25 25 26 27 25 26 30 32 35 38 39 41 44 47 50 54 55 51 47 49 49 51 50 51 54
59 56 52 49 47 42 38 33 29 27 31 29 25 21 21 23 21 21 22 22 22 23 25 28 31 32 34 36 39 41 45 48 51 54 57 56 55 56 56 54 55 53 61
53 53 50 46 42 40 35 29 26 26 22 20 21 22 20 18 16 15 15 18 21 26 30 32 35 38 39 40 41 40 40 40 42 43 47 50 51 53 57 56 58 58 63
54 53 50 47 44 37 33 32 29 27 25 24 20 17 15 14 15 16 18 22 26 30 34 37 39 40 41 40 40 39 37 37 40 42 41 41 46 47 47 48 49 49 53
50 51 47 40 38 36 35 34 36 35 27 20 15 14 16 14 16 20 22 25 28 32 34 35 38 38 38 36 36 33 34 33 33 37 38 39 41 42 43 44 44 45 49
41 39 42 42 41 41 40 35 29 23 18 16 14 15 15 15 16 18 21 23 26 30 34 34 35 33 29 29 29 30 34 36 36 33 34 34 31 32 37 39 41 45 49
50 51 47 44 40 35 30 21 14 12 14 14 13 13 13 16 18 20 22 25 27 28 29 31 32 27 26 27 27 28 30 32 34 34 33 33 33 34 37 39 39 39 40
46 41 36 31 27 24 20 20 20 16 12 11 12 13 14 15 15 17 19 21 23 25 26 28 26 23 21 21 21 25 27 27 26 26 29 29 30 32 33 36 37 39 36
37 34 29 23 22 25 23 18 14 12 11 11 11 11 11 12 13 16 18 19 22 23 23 22 19 16 17 15 16 16 15 18 20 23 23 24 27 31 31 32 33 33 34
22 26 25 24 23 20 17 15 14 12 8 5 7 10 12 14 14 14 16 19 21 22 22 19 15 13 13 14 12 13 15 15 16 17 16 19 20 24 27 28 29 30 32
19 25 24 21 19 18 15 12 9 6 6 7 10 14 16 16 17 19 21 23 23 22 23 23 21 19 16 14 14 14 14 14 16 17 18 19 20 21 25 27 29 29 30
25 21 19 18 17 14 11 9 8 8 9 11 14 16 18 20 22 24 25 26 26 25 25 25 24 22 20 20 19 19 19 19 20 22 23 23 23 24 24 26 29 29 30
19 19 18 16 14 12 10 8 7 8 11 14 17 18 20 21 22 25 27 28 29 29 27 27 27 27 27 27 27 27 27 27 28 30 31 30 28 26 25 26 29 33 35
21 19 17 16 14 12 10 8 8 9 11 13 16 19 22 25 27 29 30 32 34 34 34 33 33 34 35 35 34 34 35 32 31 34 36 35 34 30 27 28 29 33 37
Wind_Direction_500mb
216 218 220 221 221 220 221 223 223 221 220 220 221 223 225 227 228 228 227 229 230 235 231 229 227 217 205 192 192 37 31 30 32 31 39 44 40 40 43 42 41 39 37
217 218 220 221 221 220 222 223 223 222 221 221 222 223 226 227 229 230 230 232 233 234 237 237 239 236 234 224 225 242 359 11 15 24 30 43 34 35 34 38 41 37 36
215 217 219 221 221 219 222 222 220 220 221 222 223 225 227 228 230 231 232 235 238 239 242 244 244 243 245 244 239 244 277 321 343 357 359 17 18 21 23 22 29 35 32
215 217 220 222 221 219 222 221 219 218 220 222 223 225 226 228 230 231 233 237 239 242 246 248 249 250 252 257 258 259 266 280 308 325 326 329 337 343 355 359 3 16 30
215 216 219 220 219 218 219 219 218 217 218 218 222 225 227 230 232 233 236 239 241 245 248 252 252 250 254 261 266 264 264 269 282 298 308 305 303 308 314 337 352 354 4
215 216 217 218 217 217 217 217 217 217 217 218 221 223 226 227 229 233 237 241 243 248 250 253 252 253 259 264 267 267 268 270 274 281 292 299 298 300 306 312 320 327 346
213 214 216 216 216 216 215 216 216 217 218 219 220 223 224 224 228 234 236 240 246 250 253 258 262 263 263 267 270 271 270 270 271 275 280 287 293 295 299 306 312 318 323
212 214 215 215 215 214 214 215 215 216 219 221 223 224 225 225 230 235 238 241 246 249 254 260 265 266 267 269 271 272 272 272 274 277 279 280 285 291 294 300 303 305 309
213 214 215 214 213 213 213 213 214 216 219 221 223 226 227 228 231 237 242 244 246 251 255 261 267 270 273 275 278 281 279 281 280 278 278 280 282 284 288 292 296 300 303
213 213 214 214 215 214 213 213 214 217 220 221 222 225 227 228 230 238 242 246 251 254 258 262 269 274 274 277 280 282 283 288 280 278 279 280 282 284 286 289 291 293 297
213 210 210 212 213 212 211 211 214 216 218 219 220 223 227 231 231 239 245 250 256 258 262 268 272 275 276 277 279 281 288 285 283 283 282 282 282 285 287 287 287 288 290
208 207 207 208 205 206 207 208 210 213 216 218 220 224 227 232 237 240 250 256 260 264 268 269 271 271 274 277 281 287 286 284 284 285 285 287 290 290 290 285 284 285 286
201 202 201 200 200 200 204 205 208 210 214 220 222 224 228 234 240 247 252 260 268 274 277 276 276 277 277 279 281 281 281 281 284 285 289 290 291 288 285 287 287 285 285
197 195 193 194 191 193 196 201 205 215 219 218 219 219 220 227 236 245 253 260 269 279 279 277 280 283 283 284 282 281 281 282 283 284 287 289 289 290 289 290 288 288 284
189 186 185 184 186 186 190 200 203 206 208 202 195 194 199 207 221 238 255 268 276 279 283 286 288 291 291 291 290 288 284 281 282 286 291 294 294 295 294 293 291 292 290
176 177 177 177 181 185 183 182 185 185 185 179 179 186 203 220 240 259 272 275 278 281 283 286 288 290 292 295 298 299 301 302 303 304 303 299 297 297 300 301 300 296 294
171 167 173 180 170 169 167 164 174 172 168 174 195 219 232 251 265 269 273 279 283 289 292 294 293 293 296 300 304 307 309 312 315 313 310 309 310 311 300 299 303 305 305
173 168 157 153 150 156 167 164 159 167 185 208 232 244 252 260 273 283 291 296 297 297 295 295 298 300 303 303 305 309 309 314 317 320 319 320 319 314 313 312 308 307 308
144 142 148 158 156 150 152 160 178 216 228 233 246 258 274 286 294 299 300 299 302 303 300 297 298 295 296 294 297 299 305 314 321 324 324 324 320 317 316 316 316 313 309
137 131 136 141 148 163 187 214 219 216 221 236 254 269 279 286 289 294 299 307 312 313 313 313 311 304 300 300 297 288 290 296 303 310 313 317 318 317 317 317 317 318 320
146 150 158 173 193 207 202 195 197 203 213 224 242 259 276 288 301 312 316 320 323 326 324 324 324 317 313 305 302 305 304 304 302 303 305 309 316 320 323 324 324 326 327
171 179 177 191 188 183 182 187 189 192 200 238 279 296 299 298 303 309 322 330 328 324 323 328 332 331 331 324 324 322 320 324 323 321 324 312 310 314 313 315 321 329 333
179 196 188 180 178 180 181 180 191 218 255 281 294 299 299 300 303 312 321 323 321 314 311 316 319 321 320 318 323 330 341 342 338 334 331 329 330 325 320 320 323 323 321
190 183 180 182 184 186 190 204 225 257 285 300 306 307 304 304 303 305 308 310 311 308 308 308 308 310 310 308 306 307 311 318 323 325 325 328 335 339 336 327 326 325 326
186 188 190 191 195 202 213 228 248 270 290 302 307 307 304 302 302 299 300 301 301 300 297 295 296 297 297 295 294 294 296 301 306 310 311 313 314 316 319 328 332 332 334
196 199 201 204 209 218 228 241 259 278 290 299 304 304 303 303 302 299 296 294 292 290 286 284 284 284 285 286 287 285 285 288 295 299 301 303 303 303 305 312 321 326 327
Wind_Speed_850mb
57 52 47 44 42 40 37 34 33 31 30 28 27 25 24 24 22 20 18 16 15 13 11 9 8 6 5 5 2 4 9 13 14 16 17 17 19 27 31 36 42 50 59
59 54 49 45 44 42 39 36 34 32 31 29 28 27 26 24 23 21 19 18 17 15 13 11 9 7 7 7 6 2 4 9 11 11 11 12 14 19 25 28 34 41 49
63 58 53 49 47 44 41 38 36 34 33 31 29 28 25 25 23 22 21 19 18 16 15 13 12 10 10 10 9 7 5 6 8 8 8 8 9 11 13 18 23 31 38
67 63 57 51 48 46 42 39 37 35 34 32 30 29 27 25 24 23 22 21 20 18 17 15 13 12 12 12 12 12 11 9 10 10 8 9 9 11 12 12 13 20 24
71 65 59 50 49 49 45 42 40 37 35 32 31 30 28 26 23 22 22 22 20 19 17 16 15 13 14 14 14 14 15 16 15 14 12 11 12 13 14 14 17 21 21
73 67 60 55 55 52 47 44 42 40 37 35 33 31 28 26 24 25 24 23 22 20 18 19 17 16 16 16 17 17 19 19 19 19 17 16 17 19 19 19 20 23 25
72 69 64 59 58 53 49 47 44 41 38 36 34 32 29 27 27 26 24 24 22 21 20 21 19 18 18 19 21 21 22 24 25 25 24 24 23 23 25 24 25 26 28
75 72 66 62 58 55 52 49 46 42 38 36 34 31 30 27 26 25 24 23 23 23 23 23 22 22 21 23 25 25 26 27 28 31 31 30 30 30 30 32 31 31 31
78 74 68 62 59 57 54 50 45 41 40 36 32 31 28 26 25 24 24 24 24 24 24 24 25 24 24 26 29 29 30 28 31 33 34 36 37 36 37 37 38 41 42
79 73 64 59 56 55 51 47 41 39 36 34 31 30 28 26 25 25 25 25 26 24 25 26 27 26 28 30 32 33 35 28 35 36 37 37 40 40 40 41 43 43 44
73 65 60 56 50 48 46 43 39 39 37 33 30 29 28 26 25 26 26 26 24 25 25 26 26 29 31 33 35 36 37 37 38 43 42 41 42 43 42 43 46 49 48
66 62 59 52 48 48 45 41 40 37 34 31 30 29 27 27 26 26 26 24 25 26 25 26 28 31 33 36 39 39 40 42 46 49 49 47 45 44 44 47 48 51 52
63 60 54 48 47 45 43 41 39 35 32 31 29 27 25 25 25 25 25 25 26 27 25 26 30 32 35 38 39 41 44 47 50 54 55 51 47 49 49 51 50 51 54
59 56 52 49 47 42 38 33 29 27 31 29 25 21 21 23 21 21 22 22 22 23 25 28 31 32 34 36 39 41 45 48 51 54 57 56 55 56 56 54 55 53 61
53 53 50 46 42 40 35 29 26 26 22 20 21 22 20 18 16 15 15 18 21 26 30 32 35 38 39 40 41 40 40 40 42 43 47 50 51 53 57 56 58 58 63
54 53 50 47 44 37 33 32 29 27 25 24 20 17 15 14 15 16 18 22 26 30 34 37 39 40 41 40 40 39 37 37 40 42 41 41 46 47 47 48 49 49 53
50 51 47 40 38 36 35 34 36 35 27 20 15 14 16 14 16 20 22 25 28 32 34 35 38 38 38 36 36 33 34 33 33 37 38 39 41 42 43 44 44 45 49
41 39 42 42 41 41 40 35 29 23 18 16 14 15 15 15 16 18 21 23 26 30 34 34 35 33 29 29 29 30 34 36 36 33 34 34 31 32 37 39 41 45 49
50 51 47 44 40 35 30 21 14 12 14 14 13 13 13 16 18 20 22 25 27 28 29 31 32 27 26 27 27 28 30 32 34 34 33 33 33 34 37 39 39 39 40
46 41 36 31 27 24 20 20 20 16 12 11 12 13 14 15 15 17 19 21 23 25 26 28 26 23 21 21 21 25 27 27 26 26 29 29 30 32 33 36 37 39 36
37 34 29 23 22 25 23 18 14 12 11 11 11 11 11 12 13 16 18 19 22 23 23 22 19 16 17 15 16 16 15 18 20 23 23 24 27 31 31 32 33 33 34
22 26 25 24 23 20 17 15 14 12 8 5 7 10 12 14 14 14 16 19 21 22 22 19 15 13 13 14 12 13 15 15 16 17 16 19 20 24 27 28 29 30 32
19 25 24 21 19 18 15 12 9 6 6 7 10 14 16 16 17 19 21 23 23 22 23 23 21 19 16 14 14 14 14 14 16 17 18 19 20 21 25 27 29 29 30
25 21 19 18 17 14 11 9 8 8 9 11 14 16 18 20 22 24 25 26 26 25 25 25 24 22 20 20 19 19 19 19 20 22 23 23 23 24 24 26 29 29 30
19 19 18 16 14 12 10 8 7 8 11 14 17 18 20 21 22 25 27 28 29 29 27 27 27 27 27 27 27 27 27 27 28 30 31 30 28 26 25 26 29 33 35
21 19 17 16 14 12 10 8 8 9 11 13 16 19 22 25 27 29 30 32 34 34 34 33 33 34 35 35 34 34 35 32 31 34 36 35 34 30 27 28 29 33 37
Wind_Direction_850mb
216 218 220 221 221 220 221 223 223 221 220 220 221 223 225 227 228 228 227 229 230 235 231 229 227 217 205 192 192 37 31 30 32 31 39 44 40 40 43 42 41 39 37
217 218 220 221 221 220 222 223 223 222 221 221 222 223 226 227 229 230 230 232 233 234 237 237 239 236 234 224 225 242 359 11 15 24 30 43 34 35 34 38 41 37 36
215 217 219 221 221 219 222 222 220 220 221 222 223 225 227 228 230 231 232 235 238 239 242 244 244 243 245 244 239 244 277 321 343 357 359 17 18 21 23 22 29 35 32
215 217 220 222 221 219 222 221 219 218 220 222 223 225 226 228 230 231 233 237 239 242 246 248 249 250 252 257 258 259 266 280 308 325 326 329 337 343 355 359 3 16 30
215 216 219 220 219 218 219 219 218 217 218 218 222 225 227 230 232 233 236 239 241 245 248 252 252 250 254 261 266 264 264 269 282 298 308 305 303 308 314 337 352 354 4
215 216 217 218 217 217 217 217 217 217 217 218 221 223 226 227 229 233 237 241 243 248 250 253 252 253 259 264 267 267 268 270 274 281 292 299 298 300 306 312 320 327 346
213 214 216 216 216 216 215 216 216 217 218 219 220 223 224 224 228 234 236 240 246 250 253 258 262 263 263 267 270 271 270 270 271 275 280 287 293 295 299 306 312 318 323
212 214 215 215 215 214 214 215 215 216 219 221 223 224 225 225 230 235 238 241 246 249 254 260 265 266 267 269 271 272 272 272 274 277 279 280 285 291 294 300 303 305 309
213 214 215 214 213 213 213 213 214 216 219 221 223 226 227 228 231 237 242 244 246 251 255 261 267 270 273 275 278 281 279 281 280 278 278 280 282 284 288 292 296 300 303
213 213 214 214 215 214 213 213 214 217 220 221 222 225 227 228 230 238 242 246 251 254 258 262 269 274 274 277 280 282 283 288 280 278 279 280 282 284 286 289 291 293 297
213 210 210 212 213 212 211 211 214 216 218 219 220 223 227 231 231 239 245 250 256 258 262 268 272 275 276 277 279 281 288 285 283 283 282 282 282 285 287 287 287 288 290
208 207 207 208 205 206 207 208 210 213 216 218 220 224 227 232 237 240 250 256 260 264 268 269 271 271 274 277 281 287 286 284 284 285 285 287 290 290 290 285 284 285 286
201 202 201 200 200 200 204 205 208 210 214 220 222 224 228 234 240 247 252 260 268 274 277 276 276 277 277 279 281 281 281 281 284 285 289 290 291 288 285 287 287 285 285
197 195 193 194 191 193 196 201 205 215 219 218 219 219 220 227 236 245 253 260 269 279 279 277 280 283 283 284 282 281 281 282 283 284 287 289 289 290 289 290 288 288 284
189 186 185 184 186 186 190 200 203 206 208 202 195 194 199 207 221 238 255 268 276 279 283 286 288 291 291 291 290 288 284 281 282 286 291 294 294 295 294 293 291 292 290
176 177 177 177 181 185 183 182 185 185 185 179 179 186 203 220 240 259 272 275 278 281 283 286 288 290 292 295 298 299 301 302 303 304 303 299 297 297 300 301 300 296 294
171 167 173 180 170 169 167 164 174 172 168 174 195 219 232 251 265 269 273 279 283 289 292 294 293 293 296 300 304 307 309 312 315 313 310 309 310 311 300 299 303 305 305
173 168 157 153 150 156 167 164 159 167 185 208 232 244 252 260 273 283 291 296 297 297 295 295 298 300 303 303 305 309 309 314 317 320 319 320 319 314 313 312 308 307 308
144 142 148 158 156 150 152 160 178 216 228 233 246 258 274 286 294 299 300 299 302 303 300 297 298 295 296 294 297 299 305 314 321 324 324 324 320 317 316 316 316 313 309
137 131 136 141 148 163 187 214 219 216 221 236 254 269 279 286 289 294 299 307 312 313 313 313 311 304 300 300 297 288 290 296 303 310 313 317 318 317 317 317 317 318 320
146 150 158 173 193 207 202 195 197 203 213 224 242 259 276 288 301 312 316 320 323 326 324 324 324 317 313 305 302 305 304 304 302 303 305 309 316 320 323 324 324 326 327
171 179 177 191 188 183 182 187 189 192 200 238 279 296 299 298 303 309 322 330 328 324 323 328 332 331 331 324 324 322 320 324 323 321 324 312 310 314 313 315 321 329 333
179 196 188 180 178 180 181 180 191 218 255 281 294 299 299 300 303 312 321 323 321 314 311 316 319 321 320 318 323 330 341 342 338 334 331 329 330 325 320 320 323 323 321
190 183 180 182 184 186 190 204 225 257 285 300 306 307 304 304 303 305 308 310 311 308 308 308 308 310 310 308 306 307 311 318 323 325 325 328 335 339 336 327 326 325 326
186 188 190 191 195 202 213 228 248 270 290 302 307 307 304 302 302 299 300 301 301 300 297 295 296 297 297 295 294 294 296 301 306 310 311 313 314 316 319 328 332 332 334
196 199 201 204 209 218 228 241 259 278 290 299 304 304 303 303 302 299 296 294 292 290 286 284 284 284 285 286 287 285 285 288 295 299 301 303 303 303 305 312 321 326 327